Location: Krasnoyarskiy Pitomnik
(51.1333°N, 71.6167°E)
Time: 10:23:53
(UTC+00:00)

SL-08 RB Rocket - Pass Details

Date: 22 October 2021
Orbit: 646 x 684 km, 97.8° (Epoch: 06 December)

Event Time Altitude Azimuth Distance (km) Brightness Sun altitude
Rises 13:53:42 0° 170° (S) 2,983 6.9 -17.5°
Reaches altitude 10° 13:55:54 10° 172° (S) 2,081 6.1 -17.8°
Maximum altitude 14:00:27 73° 257° (WSW) 705 3.9 -18.5°
Drops below altitude 10° 14:05:05 10° 343° (NNW) 2,121 6.6 -19.3°
Sets 14:07:22 0° 345° (NNW) 3,046 7.4 -19.6°
